Theta_e
317 319 321 319 317 314 315 315 317 315 315 316 318 318 317 316 316 315 313 315 316 318 318 319 318 317 317 318 318 318 319 332 339 335 336 336 336 334 333 330 332 331 329 330
318 320 317 315 315 316 316 317 319 318 316 316 317 318 317 316 315 313 314 314 314 317 320 321 320 320 319 317 317 317 318 319 333 338 333 336 333 335 332 327 332 332 332 331
317 316 316 317 318 318 318 319 319 318 316 315 315 317 315 315 313 314 312 312 312 312 315 320 322 323 321 319 317 317 318 318 319 327 336 336 334 335 330 328 327 333 334 332
315 313 315 315 318 317 319 316 317 317 318 319 314 319 316 315 314 314 311 310 310 311 313 315 321 323 323 321 318 316 317 318 318 318 323 333 334 334 330 327 325 328 332 332
315 311 310 314 313 313 316 309 313 315 316 315 316 318 317 313 316 312 307 306 306 308 311 313 316 322 324 323 322 315 316 316 317 318 318 322 331 334 331 327 328 331 332 330
309 306 304 306 304 307 307 310 314 314 315 317 316 317 316 315 312 307 304 304 304 305 309 312 315 320 323 324 323 321 316 316 320 326 324 324 331 331 332 328 330 332 332 324
306 305 301 301 304 305 308 312 313 314 318 316 314 316 315 312 306 304 303 303 303 304 305 309 314 315 322 324 325 324 325 322 324 329 333 329 331 332 333 328 328 330 328 326
307 310 302 300 302 304 304 310 316 316 316 315 308 319 317 307 304 300 300 300 301 301 302 303 309 312 317 322 324 326 326 328 331 329 337 331 328 330 332 330 328 329 328 326
304 304 300 300 299 301 303 303 301 304 307 308 310 310 311 305 301 300 299 299 299 299 299 300 305 311 316 320 322 324 328 328 332 330 334 333 329 330 327 329 328 328 327 325
301 302 300 300 300 299 299 300 303 307 309 311 309 308 310 303 301 300 299 298 297 297 298 298 299 303 315 317 320 323 326 327 328 329 330 334 329 329 328 326 324 326 325 323
298 299 299 299 299 299 299 300 301 303 306 308 305 304 304 302 300 298 297 296 296 297 297 298 298 300 305 310 316 323 324 326 327 326 329 329 327 326 325 322 324 324 324 324
299 299 299 299 298 298 299 301 302 304 303 303 301 303 302 298 298 297 297 297 297 298 297 298 298 299 301 307 313 321 324 325 325 325 325 325 324 322 322 322 324 325 324 323
300 300 302 301 298 298 299 298 298 299 298 299 301 300 300 298 297 297 297 297 297 298 299 299 298 298 300 306 309 318 322 322 325 324 324 323 322 321 324 324 324 323 321 320
301 300 300 303 299 298 299 299 298 297 298 296 298 297 297 297 297 297 296 297 297 298 299 300 298 298 300 305 309 313 318 322 323 324 324 323 321 319 323 324 323 321 319 319
300 299 298 298 297 297 297 297 297 296 295 296 296 296 297 297 297 297 299 299 300 300 298 302 300 298 300 305 309 312 315 320 322 323 322 323 322 323 323 320 319 318 319 319
295 299 298 296 295 296 297 298 298 298 297 296 296 297 297 300 301 301 302 302 303 302 299 301 302 299 300 307 309 311 315 318 321 321 321 322 321 319 319 318 319 319 320 317
295 295 295 294 295 296 297 297 297 296 296 296 297 299 299 302 302 302 302 302 303 303 302 301 302 302 302 309 309 310 313 316 321 321 320 320 319 319 319 319 318 317 317 317
294 295 294 295 295 296 295 295 296 296 296 296 296 298 301 301 301 301 301 301 303 304 304 303 302 305 309 309 309 310 311 318 319 321 320 320 320 319 318 317 317 317 316 317
294 295 293 296 296 295 296 298 298 299 300 299 300 301 300 301 301 301 301 300 300 304 303 306 308 308 308 309 310 310 311 315 319 321 320 320 319 317 317 317 316 316 317 317
292 292 294 291 295 294 295 297 299 299 299 301 301 299 300 300 300 301 301 301 300 300 304 305 305 305 306 308 310 311 311 313 318 320 319 317 316 316 316 317 317 317 317 317
294 291 292 295 293 294 294 295 297 299 298 298 298 299 300 299 299 298 301 300 299 299 303 303 302 302 305 307 310 311 311 314 317 319 316 315 315 316 317 317 317 317 318 317
295 292 291 289 291 295 295 298 298 297 297 297 298 298 298 298 298 298 300 299 298 299 299 300 301 299 304 306 308 311 311 315 316 317 316 316 316 317 316 316 316 316 316 316
296 294 293 293 294 293 296 298 298 298 297 297 297 298 299 299 299 298 299 298 298 299 298 300 300 300 305 307 309 311 312 316 317 316 316 316 316 316 317 317 315 315 316 315
292 291 293 293 292 293 295 298 299 299 297 297 297 299 299 299 299 298 298 298 298 298 299 299 300 302 304 308 311 312 313 316 318 316 316 316 316 315 315 316 316 316 316 315
291 291 292 292 292 293 294 295 295 296 297 296 297 299 299 299 299 297 298 298 298 298 299 298 300 300 305 313 315 314 313 315 317 316 316 316 316 315 314 315 316 317 316 315
290 291 292 292 293 293 294 295 296 296 296 296 297 299 300 301 300 298 298 298 298 298 299 299 300 302 303 307 313 314 314 316 316 316 315 315 315 313 315 315 315 316 315 314
Wind_Speed
2 1 4 9 6 2 1 3 10 7 11 7 12 15 12 19 21 14 13 18 20 23 22 20 19 16 18 21 22 24 29 34 35 34 32 31 32 27 24 19 17 16 14 14
2 5 7 5 4 5 5 6 11 9 8 4 10 14 13 13 2 12 15 19 23 27 27 25 22 19 16 18 24 25 27 32 39 40 38 37 35 30 24 20 19 19 17 15
7 4 4 4 3 6 6 8 5 11 5 5 5 6 2 1 13 13 17 16 21 25 27 30 29 26 23 18 17 26 27 31 35 40 43 39 34 30 26 26 23 23 20 17
4 3 4 4 5 7 6 8 13 8 3 5 2 8 6 2 6 13 22 23 24 27 27 27 32 29 30 24 14 19 26 31 33 36 41 42 40 38 33 29 24 23 21 18
4 1 1 3 3 4 6 4 4 4 4 3 4 4 4 1 4 12 17 20 22 23 25 28 32 32 31 29 20 12 16 25 29 29 33 37 39 38 34 28 27 25 22 19
4 1 1 2 3 3 3 3 0 1 2 8 12 9 10 2 3 7 17 21 23 26 27 29 30 36 32 31 24 13 8 13 20 26 27 33 41 37 36 32 29 25 22 19
1 2 2 0 2 1 2 2 3 4 4 8 1 6 5 6 5 5 11 19 25 27 33 38 38 39 37 36 30 19 10 7 13 18 25 27 37 35 37 32 27 24 22 20
4 10 5 1 2 1 2 4 5 7 5 5 4 6 3 7 5 8 10 16 25 34 37 40 36 33 35 35 34 23 16 8 8 12 19 26 32 33 31 20 20 20 18 16
5 5 0 1 1 1 3 3 2 2 2 4 6 2 6 3 5 12 17 22 28 32 42 41 39 36 32 34 31 27 22 14 6 9 16 20 24 24 28 17 11 18 17 16
2 4 1 1 0 3 2 3 2 3 4 5 4 4 4 1 8 12 18 24 30 32 31 39 36 33 21 29 30 21 19 18 10 7 12 16 20 19 15 16 9 17 15 15
2 2 1 1 1 1 0 2 5 2 3 3 4 5 3 2 5 11 16 24 27 29 32 33 32 30 25 24 24 18 12 10 9 4 12 19 18 14 10 15 18 19 17 15
2 2 1 1 2 4 2 1 3 5 5 1 1 10 3 8 14 27 30 29 25 34 28 32 29 26 26 21 22 12 9 4 3 6 6 9 12 11 16 16 23 21 16 15
4 2 1 4 0 1 2 1 1 4 2 4 3 5 2 20 26 31 31 32 33 34 38 36 29 25 23 21 18 14 8 9 8 7 6 7 8 6 18 21 23 17 16 16
8 2 5 5 2 3 2 4 2 3 2 2 7 17 16 18 19 26 32 34 33 35 36 34 30 25 20 18 16 13 11 12 14 11 8 9 12 10 20 20 20 19 15 15
3 6 6 3 2 2 3 5 8 6 4 6 5 5 16 18 18 25 31 34 35 35 31 32 28 23 18 16 15 12 14 15 15 15 11 13 13 19 21 19 16 16 15 14
3 2 1 3 2 2 8 10 10 11 9 10 15 17 11 16 25 26 26 28 31 31 31 28 27 20 18 14 15 13 11 12 15 15 13 19 20 18 18 15 13 13 13 11
4 5 3 3 2 4 6 8 14 4 4 5 5 8 10 17 20 26 28 27 31 29 29 24 22 19 16 16 18 16 10 7 23 21 21 19 17 17 15 13 12 11 11 13
5 4 2 1 1 3 1 1 5 6 5 10 7 9 12 18 22 21 20 26 32 25 17 16 14 11 13 19 22 16 11 7 22 26 23 20 19 16 13 14 15 15 15 16
1 4 3 2 2 5 1 1 3 3 4 3 5 8 16 17 17 13 27 25 33 32 12 13 11 15 18 19 14 12 11 8 23 26 22 21 18 15 15 17 17 19 19 20
7 6 3 2 2 4 3 3 3 4 5 8 8 8 13 14 9 8 29 32 25 26 17 13 14 21 21 20 12 12 11 12 23 31 25 21 16 14 20 19 22 22 21 22
3 2 3 3 2 6 7 8 0 2 3 6 8 12 12 7 10 22 23 28 26 22 13 12 19 26 26 19 12 16 14 16 25 32 24 20 18 21 21 22 22 23 23 25
7 7 3 2 1 5 10 2 5 4 4 9 12 15 17 22 25 25 16 16 21 17 16 16 22 36 32 17 12 16 21 19 24 29 25 23 23 22 24 23 23 24 26 29
4 5 5 8 5 3 11 7 10 2 9 8 11 15 17 21 24 24 17 17 19 18 17 16 27 38 32 24 11 19 20 30 36 32 28 27 24 24 26 26 29 34 36 38
3 5 2 3 3 11 14 16 17 18 9 8 11 13 17 20 21 20 19 18 18 18 14 21 27 40 39 16 20 27 26 29 35 32 31 29 27 28 29 31 36 36 36 35
2 8 5 3 8 12 16 16 19 15 11 14 12 12 18 21 17 18 17 19 17 18 16 23 30 40 40 13 17 31 33 30 35 33 33 30 29 30 33 34 33 32 29 28
9 6 5 5 9 3 5 2 2 6 7 10 8 14 19 18 13 14 16 18 19 17 21 25 30 36 39 35 21 27 32 34 36 34 33 32 32 35 36 39 38 33 26 24
Wind_Direction
45 132 211 221 204 147 94 261 275 258 264 287 267 277 273 284 296 322 14 359 353 352 348 343 330 312 283 260 254 250 244 232 227 225 224 225 226 227 228 222 213 207 210 214
11 247 240 210 186 221 227 266 273 284 268 213 272 279 271 264 313 67 21 6 359 355 357 357 355 350 325 279 248 241 245 240 229 225 226 227 227 223 223 218 210 213 214 215
191 200 103 155 209 226 232 243 248 264 328 258 291 279 250 171 113 49 29 13 3 358 355 3 3 1 353 327 273 247 239 240 237 231 227 227 225 223 216 215 210 213 216 220
231 262 225 196 232 193 259 232 251 261 292 272 287 293 255 212 116 23 10 8 4 359 358 2 6 7 4 355 310 266 239 231 235 234 230 224 220 214 216 216 209 209 214 219
252 213 204 218 221 163 238 2 259 248 235 310 236 245 261 325 9 2 3 4 5 5 359 1 7 7 7 7 2 304 237 227 235 236 231 221 214 221 216 213 211 208 211 219
245 73 64 238 278 231 311 299 288 69 176 247 231 211 272 23 24 358 4 5 4 7 9 7 7 9 7 9 13 12 291 242 239 242 232 223 212 217 210 210 208 209 215 214
305 212 288 260 269 153 169 140 273 246 215 254 115 203 263 122 84 32 2 0 0 7 10 10 6 7 360 4 7 10 9 299 258 249 241 232 220 215 213 207 211 210 211 214
211 274 176 116 236 201 213 202 190 225 241 298 314 241 173 134 86 43 21 4 4 5 3 6 5 358 5 356 1 5 6 351 290 257 236 234 224 223 209 198 209 212 214 214
183 263 227 14 64 226 168 199 358 40 48 253 246 208 189 169 26 21 9 357 357 356 353 355 356 353 357 352 357 357 12 2 312 255 234 235 220 215 193 210 209 220 199 206
230 279 232 138 336 58 144 134 140 60 239 238 236 256 241 53 355 350 355 350 345 340 342 343 347 352 343 333 350 348 7 8 333 271 234 218 196 188 193 181 211 229 205 197
137 176 168 81 344 183 227 189 66 99 209 252 281 265 132 142 334 338 336 334 331 331 331 333 330 338 342 339 338 339 354 3 21 110 169 176 183 176 192 185 220 209 199 195
186 158 145 115 337 266 331 10 173 213 208 184 44 270 124 349 337 340 331 325 322 327 320 322 313 322 331 337 332 345 334 331 20 107 123 167 183 205 214 218 208 192 186 194
173 86 67 310 163 53 160 162 139 100 59 184 217 267 251 335 330 318 314 313 314 314 315 318 309 306 322 327 326 333 307 293 270 196 193 206 188 179 214 196 183 183 186 188
41 188 214 213 176 126 197 178 172 99 141 216 238 278 297 298 302 307 306 305 305 302 303 307 302 299 312 314 319 324 299 279 241 213 218 225 215 219 199 183 183 183 186 183
185 225 210 245 133 160 220 200 182 192 181 220 253 263 283 293 297 301 306 303 299 293 290 295 295 297 301 303 317 309 314 252 252 211 221 204 193 184 177 168 175 189 189 198
206 172 148 307 4 230 253 242 231 232 229 244 265 279 261 302 314 315 308 306 300 285 275 280 292 295 300 298 312 293 329 251 244 205 194 172 154 163 174 180 187 197 188 192
156 143 142 260 15 322 270 241 202 192 205 191 248 302 321 318 315 313 314 312 308 297 275 281 287 296 298 301 307 278 296 298 225 192 181 179 179 180 180 192 186 163 161 157
147 122 106 203 344 231 297 226 169 204 227 220 268 288 286 297 309 329 334 332 336 328 290 289 303 314 309 303 296 263 273 243 214 181 178 180 180 185 184 173 160 153 147 148
120 128 108 172 208 301 356 186 151 188 276 242 224 277 302 315 317 340 352 356 4 1 18 12 353 330 319 318 292 249 258 234 197 190 182 183 185 183 175 166 159 153 151 143
77 64 112 142 137 225 231 216 91 99 283 207 230 291 317 328 345 332 342 340 345 352 353 2 349 350 331 323 298 261 242 237 211 194 185 179 182 191 170 165 159 159 154 144
120 45 153 168 211 282 245 238 336 208 235 258 315 313 311 320 302 313 322 332 341 352 318 319 333 341 342 321 286 253 258 243 211 187 176 168 177 175 169 166 165 162 155 145
164 149 178 110 127 274 202 102 187 215 294 308 320 319 321 330 334 340 323 327 343 348 343 322 336 334 333 320 279 259 247 231 213 176 172 169 179 169 168 166 162 158 152 149
194 185 179 185 207 252 194 220 195 306 287 306 319 330 335 339 341 351 356 356 2 358 345 339 340 335 332 327 266 257 238 202 183 172 172 172 177 173 169 164 155 147 145 144
241 171 157 148 231 232 239 236 240 263 268 310 327 329 332 337 340 348 354 357 6 359 357 351 350 341 336 322 232 225 204 196 176 172 172 173 175 172 169 161 155 150 150 149
182 146 160 262 273 267 265 263 250 247 258 295 321 325 325 327 331 346 347 350 2 357 354 359 359 345 356 10 202 198 197 187 170 172 171 173 174 171 164 160 156 155 159 159
191 171 176 211 207 193 209 274 11 218 273 298 325 331 333 335 337 340 344 349 360 360 351 5 8 356 1 12 155 174 178 177 171 171 170 175 172 169 164 162 160 157 148 145